OBJECT A, 66175

Orbit data source: Space-Track

You're viewing an Uncataloged Satellite

Recently launched and/or uncataloged satellites may have evolving metadata. Metadata may include but not limited to: Owner, Maufacturer, Bus, Motor, and Mission.

OBJECT A, 66175 is a satellite owned by Yaogan Zongti (CN) in SSO that was launched on Sun, 26 Oct 2025 UTC via a CHANG ZHENG 3B launch vehicle from the Xichang Space Center, China (XSC). Unknown objects in Earth's orbit typically refer to objects detected orbiting the Earth but have not yet been identified or cataloged. These objects could be anything from previously untracked satellites, spent rocket stages, debris from satellite collisions, or even natural meteoroids temporarily captured by Earth's gravity.

Loading next visibility...
Identifier
66175, 2025-242A
Orbit
SSO
Country
Flag of CNCN / PRC
Related business
Manufacturer
CAST
Mission
Operational spacecraft
Bus & Motor
GF-14, Unknown motor
Mass
~6,500 kg wet, ~5,500 kg dry
Launch date (UTC)
2025-10-26 (6 days ago)
Launch vehicle
CHANG ZHENG 3B
Launch site
Xichang Space Center, China (XSC)
Object type
Unknown
Shape & HBR
Unknown
Radar Cross Section
RCS unknown

Expand to show TLE details & history
Last TLE update: 4 days ago

TLE from 4 days ago
0 OBJECT A
1 66175U 25242A   25301.10588829  .00014793  00000-0  55401-3 0  9994
2 66175  97.4398  13.2893 0010327 261.9781  98.0286 15.27335919   301
Epoch: 2025-10-28T02:32Z
TLE epoch observation values (Epoch: 2025-10-28T02:32:28.748Z)
Latitude
-0.00004°
Longitude
-61.52863°
Altitude
487.876 km
Speed
7.621 km/s
True Right ascension
00h 53m 09s
True Declination
0° 00' 00"
Sunlit
Object was in full shadow at epoch
Visualization orbit readout
Latitude
Unknown
Longitude
Unknown
Altitude
Unknown
Speed
Unknown
Apparent Right ascension
Unknown
Apparent Declination
Unknown
Sunlit
N/A
Visualization observer readout
Local Sidereal Time
15:44:23
Azimuth
Unknown
Elevation
Unknown
Doppler factor
Unknown
Orbital elements
Apogee altitude
487.821 km
Perigee altitude
473.654 km
Semi-major axis
6,858.875 km
Eccentricity
0.00103
Inclination
97.4398°
RAAN
13.2893°
Arg. of periapsis
261.9781°
True anomaly
98.14576°
Mean anomaly
98.0286°
Eccentric anomaly
98.08718°
Mean motion
3.82088 °/min
Orbital period
94.22 mins
BSTAR
0.00055401
Loading maneuver chart data...
Computing Atmospheric mass density...
Loading historical data...
Loading historical data...
Loading historical data...
Loading historical data...
Loading historical data...
Loading historical data...
Loading historical data...
Other satellites on launch #242 in the year 2025 (2025-10-26 UTC)

Documentation

Showing up to 5 results
|